EW4652 Weather Reports


Display with metric or nautical units.
time (UTC)temp
F
wind
direction
speed
MPH
gust
MPH
rain 1hr
in
rain 24hr
in
rain mn
in
humidity
%
barometer
mb
20260502190020 58 275 9.0 20.0 0.00 0.00 0.00 37 1019.8
20260502184515 58 328 8.0 19.0 0.00 0.00 0.00 34 1020.0
20260502183014 58 267 10.0 24.0 0.00 0.00 0.00 34 1020.3
20260502181512 58 305 13.0 17.0 0.00 0.00 0.00 36 1020.5
20260502170107 55 273 6.0 17.0 0.00 0.00 0.00 44 1021.3
20260502163058 55 299 13.0 23.0 0.00 0.00 0.00 38 1021.5
20260502161603 54 313 6.0 16.0 0.00 0.00 0.00 39 1021.7
20260502151600 52 289 9.0 19.0 0.00 0.00 0.00 44 1022.1
20260502123002 34 338 1.0 3.0 0.00 0.00 0.00 81 1022.5
20260502121559 32 338 0.0 1.0 0.00 0.00 0.00 81 1022.4
20260502114550 30 31 0.0 0.0 0.00 0.00 0.00 82 1022.4
20260502113051 29 31 0.0 0.0 0.00 0.00 0.00 80 1022.3
20260502111548 29 31 0.0 0.0 0.00 0.00 0.00 80 1022.2
20260502110044 29 31 0.0 0.0 0.00 0.00 0.00 78 1022.1
20260502104542 29 31 0.0 0.0 0.00 0.00 0.00 79 1022.2
20260502103041 29 31 0.0 0.0 0.00 0.00 0.00 79 1022.2
20260502101549 30 31 0.0 0.0 0.00 0.00 0.00 79 1022.1
20260502071530 29 31 0.0 0.0 0.00 0.00 0.00 80 1022.1
20260502070039 30 31 0.0 0.0 0.00 0.00 0.00 77 1022.1
20260502064524 31 32 0.0 0.0 0.00 0.00 0.00 80 1022.1
20260502063034 31 32 0.0 0.0 0.00 0.00 0.00 79 1022.2
20260502061521 32 32 0.0 0.0 0.00 0.00 0.00 79 1022.2
20260502060019 32 32 0.0 0.0 0.00 0.00 0.00 78 1022.1
20260502054529 32 32 0.0 0.0 0.00 0.00 0.00 76 1022.0
20260502053015 33 32 0.0 0.0 0.00 0.00 0.00 75 1022.0
20260502051512 33 32 0.0 0.0 0.00 0.00 0.00 74 1022.0
20260502050008 34 32 0.0 2.0 0.00 0.00 0.00 74 1021.9
20260502044508 34 32 1.0 2.0 0.00 0.00 0.00 72 1021.9
20260502043007 36 32 0.0 1.0 0.00 0.00 0.00 68 1021.7
20260502041507 37 32 0.0 2.0 0.00 0.00 0.00 64 1021.8
20260502040005 37 32 2.0 3.0 0.00 0.00 0.00 64 1021.8
20260502034511 39 32 1.0 3.0 0.00 0.00 0.00 61 1021.8
20260502033005 39 32 3.0 4.0 0.00 0.00 0.00 60 1021.8
20260502031505 39 32 2.0 3.0 0.00 0.00 0.00 62 1021.8
20260502030003 39 32 2.0 4.0 0.00 0.00 0.00 61 1021.7
20260502024502 40 32 2.0 4.0 0.00 0.00 0.00 59 1021.7
20260502023002 39 32 3.0 4.0 0.00 0.00 0.00 61 1021.5
20260502021559 39 26 3.0 5.0 0.00 0.00 0.00 61 1021.3
20260502020100 40 20 3.0 5.0 0.00 0.00 0.00 59 1021.2
20260502014556 40 18 2.0 4.0 0.00 0.00 0.00 60 1021.0
20260502013057 41 18 2.0 4.0 0.00 0.00 0.00 55 1020.8
20260502011552 44 14 2.0 6.0 0.00 0.00 0.00 50 1020.6
20260502010050 46 10 3.0 6.0 0.00 0.00 0.00 44 1020.5
20260502004549 47 17 4.0 9.0 0.00 0.00 0.00 42 1020.4
20260502003049 49 44 7.0 12.0 0.00 0.00 0.00 38 1020.2
20260502001603 49 21 6.0 10.0 0.00 0.00 0.00 38 1020.2
20260501234544 50 24 9.0 14.0 0.00 0.00 0.00 37 1020.0
20260501233044 50 12 8.0 12.0 0.00 0.00 0.00 38 1020.0
20260501231543 50 360 6.0 10.0 0.00 0.00 0.00 38 1019.9
20260501230143 50 360 5.0 12.0 0.00 0.00 0.00 38 1019.9
20260501224601 50 30 6.0 11.0 0.00 0.00 0.00 39 1019.8
20260501223042 51 360 9.0 15.0 0.00 0.00 0.00 37 1019.9
20260501221544 51 21 9.0 17.0 0.00 0.00 0.00 39 1019.8
20260501220043 51 24 9.0 13.0 0.00 0.00 0.00 38 1019.8
20260501214540 52 331 9.0 18.0 0.00 0.00 0.00 36 1019.8
20260501213042 50 17 7.0 16.0 0.00 0.00 0.00 36 1019.7
20260501211539 50 360 3.0 11.0 0.00 0.00 0.00 38 1019.7
20260501210036 52 321 8.0 16.0 0.00 0.00 0.00 38 1019.8
20260501204536 50 338 8.0 18.0 0.00 0.00 0.00 41 1019.9
20260501203037 52 331 9.0 15.0 0.00 0.00 0.00 42 1019.9
20260501201532 52 11 8.0 15.0 0.00 0.00 0.00 43 1019.9
20260501200041 51 37 8.0 14.0 0.00 0.00 0.00 41 1020.0
20260501194542 52 32 10.0 15.0 0.00 0.00 0.00 39 1020.0
20260501193034 50 38 11.0 16.0 0.00 0.00 0.00 42 1019.9
20260501191526 50 360 11.0 18.0 0.00 0.00 0.00 42 1020.0